Location: Dos Palmas
(32.4468°N, 116.8732°W)
Time: 00:23:14
(UTC+00:00)

Cosmos 372 Rocket - Pass Details

Date: 20 June 2021
Orbit: 737 x 768 km, 74.1° (Epoch: 01 August)

Event Time Altitude Azimuth Distance (km) Brightness Sun altitude
Rises 09:24:56 0° 347° (NNW) 3,234 8.0 -29.6°
Reaches altitude 10° 09:27:21 10° 351° (N) 2,308 7.1 -29.4°
Maximum altitude 09:32:32 61° 72° (ENE) 866 4.3 -28.9°
Enters shadow 09:32:35 61° 75° (ENE) 866 4.3 -28.9°
